Location: Unspecified
(47.4992°N, 121.7766°W)
Time: 15:30:44
(UTC-07:00)

Okean 3 - Pass Details

Date: 13 August 2024
Orbit: 557 x 581 km, 82.5° (Epoch: 08 September)

Event Time Altitude Azimuth Distance (km) Brightness Sun altitude
Rises 01:19:35 0° 2° (N) 2,756 8.2 -28.0°
Reaches altitude 10° 01:22:12 10° 19° (NNE) 1,854 6.9 -28.0°
Enters shadow 01:25:07 21° 64° (ENE) 1,273 5.4 -28.0°
